Location: Rio Negrinho
(26.2394°S, 49.4999°W)
Time: 05:13:58
(UTC+00:00)

Cosmos 44 Rocket - Pass Details

Date: 10 October 2020
Orbit: 644 x 746 km, 65.1° (Epoch: 30 October)

Event Time Altitude Azimuth Distance (km) Brightness Sun altitude
Rises 00:10:23 0° 197° (SSW) 3,004 7.2 -36.3°
Reaches altitude 10° 00:12:49 10° 190° (S) 2,076 6.1 -36.8°
Enters shadow 00:12:53 10° 190° (S) 2,052 6.1 -36.8°
